EW2958 Weather Reports


time (UTC)temp
F
wind
direction
speed
knots
gust
knots
rain 1hr
in
rain 24hr
in
rain mn
in
humidity
%
barometer
mb
20260510071552 57 141 0.0 0.9 0.00 0.00 0.00 81 1030.2
20260510070044 57 140 0.0 2.6 0.00 0.00 0.00 80 1030.2
20260510064544 57 152 0.0 3.5 0.00 0.00 0.00 79 1030.1
20260510063043 58 159 1.7 6.1 0.00 0.00 0.00 79 1030.0
20260510061543 58 148 0.0 3.5 0.00 0.00 0.00 77 1030.0
20260510060042 58 146 1.7 4.3 0.00 0.00 0.00 77 1029.9
20260510054542 58 163 2.6 6.1 0.00 0.00 0.00 78 1029.8
20260510053056 59 143 2.6 6.1 0.00 0.00 0.00 78 1029.8
20260510051547 59 117 0.9 2.6 0.00 0.00 0.00 74 1029.8
20260510050044 59 128 1.7 4.3 0.00 0.00 0.00 72 1029.6
20260510044539 60 116 0.0 4.3 0.00 0.00 0.00 70 1029.4
20260510043047 60 149 0.9 3.5 0.00 0.00 0.00 67 1029.5
20260510041539 60 150 0.0 0.0 0.00 0.00 0.00 67 1029.5
20260510040041 60 152 0.0 2.6 0.00 0.00 0.00 67 1029.6
20260510034535 60 181 0.0 0.0 0.00 0.00 0.00 69 1029.7
20260510033031 60 160 0.0 2.6 0.00 0.00 0.00 69 1029.7
20260510031527 60 162 0.0 0.9 0.00 0.00 0.00 70 1029.8
20260510030026 59 147 0.0 3.5 0.00 0.00 0.00 71 1030.0
20260510024525 59 113 0.9 2.6 0.00 0.00 0.00 72 1030.2
20260510023024 59 155 0.9 3.5 0.00 0.00 0.00 72 1030.4
20260510021536 59 132 0.0 3.5 0.00 0.00 0.00 68 1030.5
20260510020023 59 160 0.0 0.9 0.00 0.00 0.00 69 1030.7
20260510014526 59 131 0.0 3.5 0.00 0.00 0.00 68 1030.9
20260510013025 59 253 0.0 2.6 0.00 0.00 0.00 68 1031.1
20260510011518 59 147 0.0 3.5 0.00 0.00 0.00 68 1031.1
20260510010015 58 100 0.9 2.6 0.00 0.00 0.00 70 1031.1
20260510004512 58 177 0.0 0.9 0.00 0.00 0.00 76 1031.2
20260510003008 57 275 0.0 6.1 0.00 0.00 0.00 80 1031.3
20260510001508 56 275 0.9 3.5 0.00 0.00 0.00 84 1031.3
20260510000003 55 269 1.7 3.5 0.00 0.00 0.00 86 1031.3
20260509234600 54 289 1.7 3.5 0.00 0.00 0.00 89 1031.3
20260509233059 54 269 2.6 5.2 0.00 0.00 0.00 91 1031.3
20260509231557 53 284 1.7 5.2 0.00 0.00 0.00 91 1031.3
20260509230057 53 269 1.7 4.3 0.00 0.00 0.00 91 1031.3
20260509224557 53 308 1.7 4.3 0.00 0.00 0.00 91 1031.2
20260509223056 52 271 1.7 3.5 0.00 0.00 0.00 91 1031.1
20260509221554 52 261 1.7 2.6 0.00 0.00 0.00 91 1031.0
20260509220051 52 269 1.7 2.6 0.00 0.00 0.00 91 1030.8
20260509214602 51 274 1.7 3.5 0.00 0.00 0.00 91 1030.6
20260509213045 51 276 0.9 2.6 0.00 0.00 0.00 91 1030.3
20260509211543 51 266 1.7 3.5 0.00 0.00 0.00 91 1030.1
20260509210045 51 268 1.7 4.3 0.00 0.00 0.00 91 1030.1
20260509204542 51 281 0.9 3.5 0.00 0.00 0.00 91 1029.9
20260509203043 51 281 0.9 3.5 0.00 0.00 0.00 91 1029.8
20260509201536 52 284 0.9 2.6 0.00 0.00 0.00 91 1029.7
20260509200032 52 283 0.9 2.6 0.00 0.00 0.00 91 1029.6
20260509194533 52 271 0.9 3.5 0.00 0.00 0.00 91 1029.5
20260509193031 52 278 0.9 2.6 0.00 0.00 0.00 90 1029.2
20260509191538 52 281 1.7 3.5 0.00 0.00 0.00 90 1029.0
20260509190029 53 274 0.9 3.5 0.00 0.00 0.00 90 1028.9
20260509184534 53 273 0.9 4.3 0.00 0.00 0.00 90 1028.8
20260509183029 53 276 0.9 2.6 0.00 0.00 0.00 90 1028.8
20260509181520 53 274 0.9 4.3 0.00 0.00 0.00 90 1028.6
20260509180020 53 268 1.7 3.5 0.00 0.00 0.00 90 1028.6
20260509174522 53 249 0.9 3.5 0.00 0.00 0.00 90 1028.5
20260509173016 53 271 0.9 3.5 0.00 0.00 0.00 90 1028.5
20260509171514 53 273 1.7 4.3 0.00 0.00 0.00 90 1028.6
20260509170014 53 272 1.7 3.5 0.00 0.00 0.00 89 1028.6
20260509164511 53 264 0.9 3.5 0.00 0.00 0.00 89 1028.8
20260509163012 54 264 1.7 2.6 0.00 0.00 0.00 89 1028.6
20260509161510 54 273 0.9 2.6 0.00 0.00 0.00 89 1028.7
20260509160007 54 269 1.7 4.3 0.00 0.00 0.00 89 1028.8
20260509154506 54 272 1.7 2.6 0.00 0.00 0.00 89 1028.8
20260509153005 54 270 0.9 1.7 0.00 0.00 0.00 89 1028.8
20260509151503 54 281 0.0 3.5 0.00 0.00 0.00 89 1028.8
20260509150002 54 277 1.7 3.5 0.00 0.00 0.00 89 1028.8
20260509144600 54 279 0.9 5.2 0.00 0.00 0.00 88 1028.9
20260509143100 54 273 1.7 6.1 0.00 0.00 0.00 88 1028.8
20260509141558 54 278 1.7 4.3 0.00 0.00 0.00 88 1028.9
20260509140055 54 269 2.6 5.2 0.00 0.00 0.00 88 1028.9
20260509134552 54 263 0.9 3.5 0.00 0.00 0.00 88 1028.9
20260509133051 54 264 0.9 2.6 0.00 0.00 0.00 88 1028.8
20260509131549 54 278 0.9 4.3 0.00 0.00 0.00 88 1028.9
20260509130056 54 275 0.9 4.3 0.00 0.00 0.00 87 1028.8
20260509124552 54 270 1.7 3.5 0.00 0.00 0.00 86 1028.8
20260509123045 55 255 1.7 6.1 0.00 0.00 0.00 86 1028.9
20260509121546 55 264 0.9 5.2 0.00 0.00 0.00 85 1028.9
20260509120043 55 257 1.7 6.1 0.00 0.00 0.00 85 1028.8
20260509114551 56 282 0.0 1.7 0.00 0.00 0.00 86 1028.8
20260509113045 56 284 0.0 2.6 0.00 0.00 0.00 86 1028.6
20260509111540 56 274 0.0 0.9 0.00 0.00 0.00 86 1028.6
20260509110038 56 271 0.9 2.6 0.00 0.00 0.00 85 1028.4
20260509104537 56 188 0.0 0.0 0.00 0.00 0.00 85 1028.3
20260509103043 56 188 0.0 1.7 0.00 0.00 0.00 85 1028.2
20260509101554 56 179 0.0 0.0 0.00 0.00 0.00 85 1028.3
20260509100035 56 169 0.0 1.7 0.00 0.00 0.00 85 1028.2
20260509094539 56 150 0.0 1.7 0.00 0.00 0.00 85 1028.2
20260509093034 57 146 0.0 2.6 0.00 0.00 0.00 85 1028.1
20260509091530 57 192 0.0 2.6 0.00 0.00 0.00 85 1028.2
20260509090035 57 138 0.0 1.7 0.00 0.00 0.00 85 1028.1
20260509084526 57 146 0.9 4.3 0.00 0.00 0.00 85 1027.9
20260509083035 57 158 0.0 1.7 0.00 0.00 0.00 85 1027.7
20260509081524 57 160 0.9 1.7 0.00 0.00 0.00 84 1027.5
20260509080023 57 148 0.0 3.5 0.00 0.00 0.00 83 1027.4
20260509074522 58 155 0.9 3.5 0.00 0.00 0.00 83 1027.3
20260509073029 58 153 1.7 6.1 0.00 0.00 0.00 82 1027.1